Regional Weather Roundup
Issued by NWS

Home | Current Version | Previous Version | Graphics & Text | Print | Product List | Glossary Off
Versions: 1 2 3 4 5 6 7 8 9 10 11 12 13 14 15 16 17 18 19 20 21 22 23 24 25 26 27 28 29 30 31 32 33 34 35 36 37 38 39 40 41 42 43 44 45 46 47 48 49 50

000
ASUS43 KMKX 302211
RWRWI

WISCONSIN REGIONAL WEATHER ROUNDUP
NATIONAL WEATHER SERVICE MILWAUKEE/SULLIVAN WI
500 PM CDT TUE SEP 30 2014

NOTE: "FAIR" INDICATES FEW OR NO CLOUDS BELOW 12,000 FEET WITH NO
SIGNIFICANT WEATHER AND/OR OBSTRUCTIONS TO VISIBILITY.

WIZ001-002-006>008-014>016-023>028-302300-
NORTHWEST WISCONSIN

CITY           SKY/WX    TMP DP  RH WIND       PRES   REMARKS
SUPERIOR ARPT  PTSUNNY   48  43  82 NE14G21   29.99F
ASHLAND        SUNNY     50  43  77 NE14      30.02F
HAYWARD        MOSUNNY   62  42  47 SE5       29.96F
SIREN          MOSUNNY   58  44  60 E5        29.95F
CUMBERLAND     MOSUNNY   54  41  62 SE8       29.96F
RICE LAKE      MOSUNNY   56  42  61 SE7       29.98F
CHETEK         MOSUNNY   55  45  67 SE5       29.97S
LADYSMITH      MOSUNNY   63  43  48 E8        29.98F
EAU CLAIRE     PTSUNNY   56  43  61 E8        29.97F
MENOMONIE      PTSUNNY   56  43  62 E9        29.98S
NEW RICHMOND   PTSUNNY   55  42  63 E9        29.94F
OSCEOLA        PTSUNNY   56  44  65 E8        29.96F
$$

WIZ003>005-009-010-017-018-302300-
NORTH CENTRAL WISCONSIN

CITY           SKY/WX    TMP DP  RH WIND       PRES   REMARKS
MANITOWISH WTR SUNNY     55  43  64 SE5       30.01F
ARBOR VITAE    SUNNY     57  44  61 SE3       30.01F
WOODRUFF       SUNNY     57  44  61 SE3       30.01F
RHINELANDER    SUNNY     56  43  61 E7        30.02F
EAGLE RIVER    SUNNY     56  41  55 E6        30.01F
LAND O LAKES   SUNNY     57  42  57 S3        30.03S
PHILLIPS       MOSUNNY   60  44  55 E8        29.98F
TOMAHAWK       SUNNY     56  43  60 CALM      30.01F
MEDFORD        MOSUNNY   55  43  66 SE6       30.00S
MERRILL        SUNNY     57  44  61 SE6       30.00F
$$

WIZ029-030-035-036-043>047-302300-
CENTRAL WISCONSIN

CITY           SKY/WX    TMP DP  RH WIND       PRES   REMARKS
WAUSAU         SUNNY     55  42  61 E10       30.00F
MOSINEE        SUNNY     54  45  71 E8        30.02F
MARSHFIELD     MOSUNNY   54  43  66 E8        30.00F
STEVENS POINT  SUNNY     49  41  73 E9        30.03S
WAUPACA        CLOUDY    50  43  76 E9        30.05S
WAUTOMA        NOT AVBL
WISC RAPIDS    MOSUNNY   51  41  68 SE9       30.03F
CAMP DOUGLAS   CLOUDY    48  47  95 SE7       30.03S
$$

WIZ011>013-019>022-031-037>040-048>050-302300-
NORTHEAST WISCONSIN

CITY           SKY/WX    TMP DP  RH WIND       PRES   REMARKS
ANTIGO         SUNNY     53  43  69 SE5       30.03S
SHAWANO        CLOUDY    50  43  74 CALM      30.06S
OCONTO         CLOUDY    49  43  79 SE3       30.06S
STURGEON BAY   NOT AVBL
GREEN BAY      CLOUDY    49  43  80 E5        30.06F
MANITOWOC      NOT AVBL
APPLETON       CLOUDY    48  41  76 VRB6      30.05F
CLINTONVILLE   CLOUDY    48  41  76 CALM      30.05F
OSHKOSH        CLOUDY    49  43  80 E5        30.05R
$$

WIZ032>034-041-042-053>061-302300-
SOUTHWEST WISCONSIN

CITY           SKY/WX    TMP DP  RH WIND       PRES   REMARKS
LA CROSSE      CLOUDY    56  44  64 SE9       29.98F
SPARTA         CLOUDY    52  42  68 E8        30.01F
VIROQUA        CLOUDY    50  43  76 E3        30.00S
BOSCOBEL       PTSUNNY   56  43  61 E7        30.01S
PRAIRIE DU CHI PTSUNNY   57  44  62 E8        29.98S
PLATTEVILLE    SUNNY     55  45  67 E9        30.00S
$$

WIZ056-057-062-063-064-067-068-302300-
SOUTH CENTRAL WISCONSIN

CITY           SKY/WX    TMP DP  RH WIND       PRES   REMARKS
REEDSBURG      CLOUDY    48  43  81 E6        30.02F
BARABOO/DELLS  CLOUDY    48  41  75 E6        30.02F
LONE ROCK      CLOUDY    54  42  64 E14       30.02F
MINERAL POINT  CLOUDY    54  43  66 E8        30.00S
MADISON        CLOUDY    50  41  71 SE5       30.03S
MIDDLETON      CLOUDY    51  42  72 E5        30.03S
WATERTOWN      CLOUDY    52  44  73 CALM      30.03S
MONROE         PTSUNNY   50  43  76 NE8       30.01S
JANESVILLE     MOSUNNY   55  43  62 E8        30.01S
$$

WIZ051-052-058>065-066-070>072-302300-
SOUTHEAST WISCONSIN

CITY           SKY/WX    TMP DP  RH WIND       PRES   REMARKS
MILWAUKEE      CLOUDY    52  46  80 N12       30.03F
WAUKESHA       CLOUDY    52  43  71 E8        30.03S
MILWAUKEE/TIMM CLOUDY    52  46  82 NE10      30.04S
RACINE         CLOUDY    52  48  86 N12       30.04F
BURLINGTON     CLOUDY    53  43  69 E7        30.02R
KENOSHA        CLOUDY    52  48  86 N9        30.03F
FOND DU LAC    CLOUDY    50  42  74 E5        30.05S
SHEBOYGAN      CLOUDY    49  43  80 NE8       30.05S
WEST BEND      CLOUDY    50  41  71 NE8       30.04R
JUNEAU         CLOUDY    51  43  73 NE7       30.04S
$$

LSZ147-162-302300-
LAKE SUPERIOR

STATION/POSITION TIME  TEMP    WIND        PRES    WAVE
                       AIR SEA DIR/SP/G            HT/PER
                 (UTC) (F)     (DEG/KT/KT) (MB)    (FT/S)
W MID LAKE BUOY  2150   46 50   60/ 16/ 17 1018.0F   2/ 5
DEVILS ISLAND    2200   47      70/ 16/ 19 1017.6F
SAXON HARBOR     2100   50      50/ 13/ 15 1017.3F
$$

LMZ867-665-643>646-302300-
LAKE MICHIGAN

STATION/POSITION TIME  TEMP    WIND        PRES    WAVE
                       AIR SEA DIR/SP/G            HT/PER
                 (UTC) (F)     (DEG/KT/KT) (MB)    (FT/S)
CHAMBERS ISLAND  2100   50      20/  4/  7 1018.3F
S GREEN BAY BUOY 2200   50                 1018.8F
N MID LAKE BUOY  2150   52 58   50/  6/ 10 1017.8F   1/ 4
NORTHPORT PIER   2100   51      10/  6/  9 1017.9S
SISTER BAY       2027           20/ 11/ 13   N/A
KEWAUNEE LAKESHO 2100   49      30/  5/  7 1017.1F
SHEBOYGAN LAKESH 2200   49 55   10/ 13/ 16 1018.0F
PORT WASHINGTON  2100   52      30/ 10/ 15 1017.9
ATWATER BUOY     2200   52      10/ 12/ 16 1018.0R
MILWAUKEE LAKESH 2100   51      20/ 14/ 19   N/A
S MID LAKE BUOY  2150   54 62   20/ 14/ 16 1016.5R   4/ 7
KENOSHA   LAKESH 2200   53      10/ 14/ 16 1016.3F
$$

TC  - TEMPERATURE IN CELSIUS
VSB - VISIBILITY IN STATUTE MILES
WCI - WIND CHILL INDEX
HX  - HEAT INDEX



USA.gov is the U.S. government's official web portal to all federal, state and local government web resources and services.